Minchumina, AK

5:24 PM AKST on January 16, 2018 (GMT -0900)
Minchumina

Weather History for PAMH - August, 2014

Change the Weather History Date:

Friday, August 8, 2014

  Actual Average Record
Temperature  
Mean Temperature 60 °F -  
Max Temperature 73 °F 61 °F 77 °F (2004)
Min Temperature 48 °F 48 °F 42 °F (2008)
Degree Days  
Heating Degree Days 4    
Growing Degree Days 10 (Base 50)    
Moisture  
Dew Point 46 °F    
Average Humidity 60    
Maximum Humidity 87    
Minimum Humidity 33    
Precipitation  
Precipitation 0.00 in - - ()
Sea Level Pressure  
Sea Level Pressure 29.52 in    
Wind  
Wind Speed 1 mph (ESE)    
Max Wind Speed 7 mph    
Max Gust Speed -    
Visibility 10 miles    
Events      
Averages and records for this station are not official NWS values.
T = Trace of Precipitation, MM = Missing Value Source: NWS Daily Summary

Daily Weather History Graph

Daily Weather History Graph

Search for Another Location

Airport or City:

Trip Planner

Search our weather history database for the weather conditions in past years. The results will help you decide how hot, cold, wet, or windy it might be!

Date:

Astronomy

Aug. 08, 2014 Rise Set
Actual Time 5:41 AM AKDT 10:46 PM AKDT
Civil Twilight 4:28 AM AKDT 11:57 PM AKDT
Nautical Twilight 2:47 AM AKDT 1:42 AM AKDT
Astronomical Twilight Sun does not rise Sun does not rise
Moon 9:09 PM AKDT (8/8) 3:10 AM AKDT (8/8)
Length of Visible Light 19h 28m
Length of Day
17h 04m
Waxing Gibbous, 94% of the Moon is Illuminated
Aug 8
Waxing Gibbous
Aug 10
Full
Aug 17
Last Quarter
Aug 25
New
Sep 2
First Quarter

Hourly Weather History & Observations

Time (AKDT) Temp. Dew Point Humidity Pressure Visibility Wind Dir Wind Speed Gust Speed Precip Events Conditions
12:16 AM 57.2 °F 44.6 °F 63% 29.51 in 10.0 mi Calm Calm - N/A   Unknown
12:36 AM 57.2 °F 44.6 °F 63% 29.52 in 10.0 mi Calm Calm - N/A   Unknown
12:56 AM 57.2 °F 46.4 °F 67% 29.52 in 10.0 mi Calm Calm - N/A   Unknown
1:16 AM 57.2 °F 44.6 °F 63% 29.52 in 10.0 mi Calm Calm - N/A   Unknown
1:36 AM 55.4 °F 46.4 °F 72% 29.53 in 10.0 mi Calm Calm - N/A   Unknown
1:56 AM 55.4 °F 44.6 °F 67% 29.53 in 10.0 mi Calm Calm - N/A   Unknown
2:16 AM 55.4 °F 42.8 °F 63% 29.53 in 10.0 mi Calm Calm - N/A   Unknown
2:36 AM 55.4 °F 42.8 °F 63% 29.53 in 10.0 mi Calm Calm - N/A   Unknown
2:56 AM 55.4 °F 42.8 °F 63% 29.52 in 10.0 mi NNW 3.5 mph - N/A   Unknown
3:16 AM 55.4 °F 41.0 °F 58% 29.52 in 10.0 mi Calm Calm - N/A   Unknown
3:36 AM 51.8 °F 42.8 °F 71% 29.52 in 10.0 mi Calm Calm - N/A   Unknown
3:56 AM 51.8 °F 42.8 °F 71% 29.52 in 10.0 mi Calm Calm - N/A   Unknown
4:16 AM 50.0 °F 42.8 °F 76% 29.53 in 10.0 mi Calm Calm - N/A   Unknown
4:36 AM 51.8 °F 42.8 °F 71% 29.52 in 10.0 mi Calm Calm - N/A   Unknown
4:56 AM 50.0 °F 42.8 °F 76% 29.52 in 10.0 mi Calm Calm - N/A   Unknown
5:16 AM 50.0 °F 44.6 °F 82% 29.52 in 10.0 mi Calm Calm - N/A   Unknown
5:36 AM 51.8 °F 46.4 °F 82% 29.53 in 10.0 mi Calm Calm - N/A   Unknown
5:56 AM 48.2 °F 44.6 °F 87% 29.53 in 10.0 mi Calm Calm - N/A   Unknown
6:16 AM 48.2 °F 44.6 °F 87% 29.53 in 10.0 mi Calm Calm - N/A   Unknown
6:36 AM 48.2 °F 44.6 °F 87% 29.53 in 10.0 mi Calm Calm - N/A   Unknown
6:56 AM 48.2 °F 44.6 °F 87% 29.53 in 10.0 mi Calm Calm - N/A   Unknown
7:16 AM 48.2 °F 44.6 °F 87% 29.53 in 10.0 mi Calm Calm - N/A   Unknown
7:36 AM 50.0 °F 46.4 °F 87% 29.53 in 10.0 mi Calm Calm - N/A   Unknown
7:56 AM 50.0 °F 46.4 °F 87% 29.53 in 10.0 mi Calm Calm - N/A   Unknown
8:16 AM 51.8 °F 46.4 °F 82% 29.53 in 10.0 mi SW 5.8 mph - N/A   Unknown
8:36 AM 51.8 °F 44.6 °F 76% 29.53 in 10.0 mi Calm Calm - N/A   Unknown
8:56 AM 53.6 °F 46.4 °F 77% 29.53 in 10.0 mi Calm Calm - N/A   Unknown
9:16 AM 55.4 °F 48.2 °F 77% 29.53 in 10.0 mi Calm Calm - N/A   Unknown
9:36 AM 55.4 °F 46.4 °F 72% 29.53 in 10.0 mi ESE 3.5 mph - N/A   Unknown
9:56 AM 55.4 °F 48.2 °F 77% 29.53 in 10.0 mi Calm Calm - N/A   Unknown
10:16 AM 55.4 °F 46.4 °F 72% 29.53 in 10.0 mi Calm Calm - N/A   Unknown
10:36 AM 57.2 °F 46.4 °F 67% 29.53 in 10.0 mi Calm Calm - N/A   Unknown
10:56 AM 57.2 °F 46.4 °F 67% 29.52 in 10.0 mi Calm Calm - N/A   Unknown
11:16 AM 60.8 °F 48.2 °F 63% 29.53 in 8.0 mi Calm Calm - N/A   Unknown
11:36 AM 62.6 °F 46.4 °F 55% 29.53 in 10.0 mi Calm Calm - N/A   Unknown
11:56 AM 60.8 °F 46.4 °F 59% 29.53 in 10.0 mi Calm Calm - N/A   Unknown
12:16 PM 62.6 °F 46.4 °F 55% 29.53 in 10.0 mi Calm Calm - N/A   Unknown
12:36 PM 64.4 °F 46.4 °F 52% 29.52 in 10.0 mi East 3.5 mph - N/A   Unknown
12:56 PM 64.4 °F 44.6 °F 49% 29.53 in 10.0 mi East 4.6 mph - N/A   Unknown
1:16 PM 66.2 °F 46.4 °F 49% 29.53 in 10.0 mi Calm Calm - N/A   Unknown
1:36 PM 64.4 °F 44.6 °F 49% 29.53 in 10.0 mi SSW 3.5 mph - N/A   Unknown
1:56 PM 66.2 °F 46.4 °F 49% 29.53 in 10.0 mi Calm Calm - N/A   Unknown
2:16 PM 68.0 °F 44.6 °F 43% 29.52 in 10.0 mi SE 3.5 mph - N/A   Unknown
2:36 PM 69.8 °F 46.4 °F 43% 29.52 in 10.0 mi Calm Calm - N/A   Unknown
2:56 PM 71.6 °F 46.4 °F 41% 29.52 in 10.0 mi Calm Calm - N/A   Unknown
3:16 PM 71.6 °F 46.4 °F 41% 29.52 in 10.0 mi East 3.5 mph - N/A   Unknown
3:36 PM 71.6 °F 44.6 °F 38% 29.52 in 10.0 mi Calm Calm - N/A   Unknown
3:56 PM 71.6 °F 44.6 °F 38% 29.52 in 10.0 mi ESE 6.9 mph - N/A   Unknown
4:16 PM 73.4 °F 46.4 °F 38% 29.51 in 10.0 mi Calm Calm - N/A   Unknown
4:36 PM 73.4 °F 44.6 °F 36% 29.51 in 10.0 mi Calm Calm - N/A   Unknown
4:56 PM 73.4 °F 48.2 °F 41% 29.51 in 10.0 mi East 3.5 mph - N/A   Unknown
5:16 PM 73.4 °F 44.6 °F 36% 29.51 in 10.0 mi East 5.8 mph - N/A   Unknown
5:36 PM 73.4 °F 42.8 °F 33% 29.51 in 10.0 mi Calm Calm - N/A   Unknown
5:56 PM 69.8 °F 48.2 °F 46% 29.51 in 10.0 mi Calm Calm - N/A   Unknown
6:16 PM 71.6 °F 46.4 °F 41% 29.51 in 10.0 mi Calm Calm - N/A   Unknown
6:36 PM 71.6 °F 48.2 °F 43% 29.51 in 10.0 mi Calm Calm - N/A   Unknown
6:56 PM 71.6 °F 46.4 °F 41% 29.51 in 10.0 mi Calm Calm - N/A   Unknown
7:16 PM 69.8 °F 48.2 °F 46% 29.51 in 10.0 mi Calm Calm - N/A   Unknown
7:36 PM 68.0 °F 48.2 °F 49% 29.51 in 10.0 mi Calm Calm - N/A   Unknown
7:56 PM 66.2 °F 48.2 °F 52% 29.51 in 10.0 mi Calm Calm - N/A   Unknown
8:16 PM 66.2 °F 48.2 °F 52% 29.51 in 10.0 mi Calm Calm - N/A   Unknown
8:36 PM 64.4 °F 51.8 °F 64% 29.51 in 10.0 mi Calm Calm - N/A   Unknown
9:16 PM 62.6 °F 48.2 °F 59% 29.52 in 10.0 mi Calm Calm - N/A   Unknown
9:36 PM 62.6 °F 46.4 °F 55% 29.52 in 10.0 mi Calm Calm - N/A   Unknown
9:56 PM 60.8 °F 48.2 °F 63% 29.52 in 10.0 mi West 3.5 mph - N/A   Clear
10:16 PM 62.6 °F 46.4 °F 55% 29.53 in 10.0 mi WNW 3.5 mph - N/A   Clear
10:36 PM 60.8 °F 44.6 °F 55% 29.53 in 10.0 mi Calm Calm - N/A   Clear
10:56 PM 60.8 °F 44.6 °F 55% 29.54 in 10.0 mi Calm Calm - N/A   Clear
11:16 PM 60.8 °F 44.6 °F 55% 29.54 in 10.0 mi NW 3.5 mph - N/A   Clear
11:36 PM 60.8 °F 42.8 °F 52% 29.54 in 10.0 mi Calm Calm - N/A   Clear
11:56 PM 60.8 °F 42.8 °F 52% 29.53 in 10.0 mi Calm Calm - N/A   Clear